This demonstration page uses our WeatherBlox Daily Observations layout. Learn more.

40.92945, -100.16068

Hourly Observations for July 5, 2015

Temp ( °F °C ) Dew Point ( °F °C ) Humidity (%) Winds ( mph kmh ) Pressure ( in mb ) Visibility ( mi km ) Precip ( " mm )
12:15 am 00:15 Clear 76 24.6 65 18.2 68 68 SSE 14 22 29.8 1009 10 16.0934 N/A
12:35 am 00:35 Clear 76 24.5 65 18.2 68 68 SSE 15 24 29.8 1009 10 16.0934 N/A
12:55 am 00:55 Clear 76 24.2 65 18.1 69 69 SSE 14 22 29.77 1008 10 16.0934 N/A
1:15 am 01:15 Clear 75 24.1 64 18 69 69 SSE 14 22 29.77 1008 10 16.0934 N/A
1:35 am 01:35 Clear 75 24 64 18 69 69 SSE 15 24 29.77 1008 10 16.0934 N/A
1:55 am 01:55 Clear 75 24.1 64 18 69 69 SSE 16 26 29.77 1008 10 16.0934 N/A
2:15 am 02:15 Clear 75 24 64 17.8 68 68 SSE 15 24 29.77 1008 10 16.0934 N/A
2:35 am 02:35 Clear 75 24 64 17.9 69 69 SSE 14 22 29.77 1008 10 16.0934 N/A
2:55 am 02:55 Clear 75 24 64 18 69 69 SSE 14 22 29.77 1008 10 16.0934 N/A
3:15 am 03:15 Clear 75 23.7 65 18.1 71 71 SSE 12 19 29.77 1008 10 16.0934 N/A
3:35 am 03:35 Clear 74 23.5 65 18.1 72 72 SSE 13 20 29.77 1008 10 16.0934 N/A
3:55 am 03:55 Clear 74 23.3 65 18.3 74 74 S 13 20 29.74 1007 10 16.0934 N/A
4:15 am 04:15 Clear 74 23.2 65 18.5 75 75 SSE 10 17 29.74 1007 10 16.0934 N/A
4:35 am 04:35 Clear 73 23 65 18.5 76 76 SSE 12 19 29.74 1007 10 16.0934 N/A
4:55 am 04:55 Clear 73 22.7 65 18.6 78 78 SSE 13 20 29.74 1007 10 16.0934 N/A
5:15 am 05:15 Clear 73 22.5 66 18.7 79 79 SSE 12 19 29.71 1006 10 16.0934 N/A
5:35 am 05:35 Partly Cloudy 72 22.2 66 18.8 81 81 S 10 17 29.74 1007 10 16.0934 N/A
5:55 am 05:55 Partly Cloudy 72 22 66 18.9 83 83 S 12 19 29.71 1006 10 16.0934 N/A
6:15 am 06:15 Sunny 71 21.8 66 19 84 84 S 14 22 29.71 1006 10 16.0934 N/A
6:35 am 06:35 Sunny 71 21.7 66 19 85 85 S 13 20 29.71 1006 10 16.0934 N/A
6:55 am 06:55 Sunny 71 21.6 66 19 85 85 S 10 17 29.71 1006 10 16.0934 N/A
7:15 am 07:15 Sunny 72 22 67 19.2 84 84 S 8 13 29.71 1006 10 16.0934 N/A
7:35 am 07:35 Sunny 73 22.5 67 19.5 83 83 S 14 22 29.71 1006 10 16.0934 N/A
7:55 am 07:55 Sunny 74 23.1 67 19.7 81 81 S 10 17 29.74 1007 10 16.0934 N/A
8:15 am 08:15 Sunny 74 23.5 68 19.9 80 80 SE 6 9 29.74 1007 10 16.0934 N/A
8:35 am 08:35 Sunny 75 24.1 68 20 78 78 SE 10 17 29.74 1007 10 16.0934 N/A
8:55 am 08:55 Sunny 77 24.8 68 20 75 75 SSE 10 17 29.74 1007 10 16.0934 N/A
9:15 am 09:15 Sunny 77 25.1 68 20.2 74 74 SE 12 19 29.74 1007 10 16.0934 N/A
9:35 am 09:35 Sunny 78 25.7 68 20.1 71 71 SSE 13 20 29.71 1006 10 16.0934 N/A
9:55 am 09:55 Sunny 80 26.5 69 20.6 70 70 SSE 10 17 29.71 1006 10 16.0934 N/A
10:15 am 10:15 Sunny 81 27.1 69 20.3 66 66 SSE 14 22 29.71 1006 10 16.0934 N/A
10:35 am 10:35 Sunny 82 27.5 68 20.2 64 64 SE 14 22 29.71 1006 10 16.0934 N/A
10:55 am 10:55 Sunny 83 28.4 69 20.7 63 63 SE 10 17 29.71 1006 10 16.0934 N/A
11:15 am 11:15 Sunny 83 28.5 69 20.5 62 62 SE 13 20 29.68 1005 10 16.0934 N/A
11:35 am 11:35 Sunny 84 29.1 69 20.4 59 59 SE 14 22 29.65 1004 10 16.0934 N/A
11:55 am 11:55 Sunny 84 29.1 69 20.3 59 59 SSE 13 20 29.68 1005 10 16.0934 N/A
12:15 pm 12:15 Sunny 86 30 69 20.5 57 57 SSE 13 20 29.68 1005 10 16.0934 N/A
12:35 pm 12:35 Sunny 86 30 69 20.8 58 58 SSE 13 20 29.68 1005 10 16.0934 N/A
12:55 pm 12:55 Sunny 87 30.7 69 20.7 55 55 SE 13 20 29.65 1004 10 16.0934 N/A
1:15 pm 13:15 Sunny 88 31.3 69 20.8 54 54 SSE 13 20 29.65 1004 10 16.0934 N/A
1:35 pm 13:35 Sunny 89 31.6 69 20.7 52 52 SSE 14 22 29.65 1004 10 16.0934 N/A
1:55 pm 13:55 Sunny 90 32 69 20.6 51 51 SE 16 26 29.62 1003 10 16.0934 N/A
2:15 pm 14:15 Sunny 91 32.8 69 20.5 48 48 SSE 14 22 29.59 1002 10 16.0934 N/A
2:35 pm 14:35 Sunny 92 33.4 69 20.8 48 48 SSE 14 22 29.59 1002 10 16.0934 N/A
2:55 pm 14:55 Sunny 92 33.6 69 20.8 47 47 SSE 13 20 29.59 1002 10 16.0934 N/A
3:15 pm 15:15 Sunny 94 34.6 70 21.1 45 45 SE 14 22 29.56 1001 10 16.0934 N/A
3:35 pm 15:35 Sunny 96 35.5 69 20.7 42 42 SE 13 20 29.53 1000 10 16.0934 N/A
3:55 pm 15:55 Sunny 98 36.6 67 19.5 37 37 SSE 12 19 29.53 1000 10 16.0934 N/A
4:15 pm 16:15 Sunny 99 37.2 64 17.5 31 31 S 12 19 29.53 1000 10 16.0934 N/A
4:35 pm 16:35 Sunny 99 37.2 64 17.7 32 32 S 12 19 29.5 999 10 16.0934 N/A
4:55 pm 16:55 Sunny 99 37 64 17.8 32 32 S 9 15 29.5 999 10 16.0934 N/A
5:15 pm 17:15 Sunny 98 36.8 65 18.1 33 33 S 8 13 29.5 999 10 16.0934 N/A
5:35 pm 17:35 Sunny 97 35.9 67 19.3 38 38 SSE 7 11 29.5 999 10 16.0934 N/A
5:55 pm 17:55 Sunny 98 36.4 65 18.6 35 35 SE 9 15 29.47 998 10 16.0934 N/A
6:15 pm 18:15 Sunny 98 36.5 65 18.3 34 34 SE 10 17 29.47 998 10 16.0934 N/A
6:35 pm 18:35 Sunny 97 36.1 67 19.7 38 38 SE 8 13 29.47 998 10 16.0934 N/A
6:55 pm 18:55 Sunny 95 35.2 70 20.9 43 43 SSE 10 17 29.47 998 10 16.0934 N/A
7:15 pm 19:15 Sunny 94 34.4 70 20.9 45 45 SSE 9 15 29.5 999 10 16.0934 N/A
7:35 pm 19:35 Sunny 92 33.5 70 21.1 48 48 SSE 8 13 29.5 999 10 16.0934 N/A
7:55 pm 19:55 Sunny 91 32.5 67 19.2 45 45 SSW 17 28 29.53 1000 10 16.0934 N/A
8:15 pm 20:15 Sunny 88 31.2 62 16.4 41 41 S 12 19 29.56 1001 10 16.0934 N/A
8:35 pm 20:35 Sunny 86 30.1 60 15.7 42 42 SSW 15 24 29.53 1000 10 16.0934 N/A
8:55 pm 20:55 Sunny 85 29.2 59 14.8 41 41 SSW 15 24 29.56 1001 10 16.0934 N/A
9:15 pm 21:15 Clear 83 28.2 57 14.1 42 42 SSW 14 22 29.56 1001 10 16.0934 N/A
9:35 pm 21:35 Clear 82 27.8 57 14.1 43 43 SSW 14 22 29.56 1001 10 16.0934 N/A
9:55 pm 21:55 Clear with Nearby Thunderstorms 82 28 58 14.7 44 44 SSW 8 13 29.56 1001 10 16.0934 N/A
10:15 pm 22:15 Clear 84 28.8 57 13.7 40 40 SW 14 22 29.56 1001 10 16.0934 N/A
10:35 pm 22:35 Clear 86 30 58 14.6 39 39 SSW 23 37 29.56 1001 10 16.0934 N/A
10:55 pm 22:55 Clear with Thunderstorms 84 29.1 57 13.7 39 39 SSW 24 39 29.56 1001 10 16.0934 N/A
11:15 pm 23:15 Clear 84 28.9 57 13.9 40 40 NNW 3 6 29.59 1002 10 16.0934 N/A
11:35 pm 23:35 Mostly Cloudy with Light Rain 82 27.6 60 15.4 47 47 W 12 19 29.68 1005 10 16.0934 N/A
11:55 pm 23:55 Cloudy with Light Rain 80 26.5 60 15.8 52 52 WSW 12 19 29.68 1005 10 16.0934 N/A

Powered by AerisWeather